#timestamp,LO_Frequency,Hit,StdDev 
1543035615.3,286047001.4,N
1543035635.2,286047001.8,N
1543035655.0,286047001.8,N
1543035655.9,286047001.8,N
1543035675.8,286047004.2,Y
1543035695.6,286047001.7,P
1543035715.4,286047004.3,P
1543035735.3,286047003.3,N
1543035755.1,286047003.9,Y
1543035775.9,286047000.0,P
1543035795.7,286047002.6,N
1543035815.5,286047001.8,N
1543035835.4,286047003.9,Y
1543035855.2,286047000.2,P
1543035875.0,286047002.0,N
1543035875.9,286047002.0,N
1543035895.8,286047001.5,N
1543035915.6,286047001.7,N
1543035935.5,286047001.3,N
1543035955.3,286047003.2,Y
1543035975.1,286047003.5,P
1543035995.9,286047003.6,P
1543036015.7,286047003.7,P
1543036035.6,286047003.2,Y
1543036055.4,286047000.2,P
1543036075.2,286047001.5,N
1543036095.1,286047001.9,N
1543036096.0,286047001.9,N
1543036115.8,286047001.6,N
1543036135.7,286047002.3,N
1543036155.5,286047004.3,Y
1543036175.3,286047000.5,P
1543036195.2,286047000.2,N
1543036215.0,286047001.5,N
1543036215.9,286047001.5,N
1543036235.8,286047002.9,Y
1543036255.6,286047003.0,P
1543036275.4,286047005.4,P
1543036295.3,286047003.2,N
1543036315.1,286047005.8,Y
1543036335.8,286047003.2,P
1543036355.7,286047003.6,P
1543036375.5,286047001.3,P
1543036395.4,286047001.5,N
1543036415.2,286047001.3,N
1543036435.0,286047003.3,Y
1543036435.9,286047003.3,P
1543036455.8,286047002.3,P
1543036475.6,286047002.0,P
1543036495.5,286047004.0,Y
1543036515.3,286046998.1,P
1543036535.1,286047000.8,N
1543036555.9,286047000.5,N
1543036575.7,286046998.5,N
1543036595.5,286047000.9,N
1543036615.4,286047000.1,N
1543036635.2,286047002.8,N
1543036655.1,286046999.8,N
1543036656.0,286046999.8,N
1543036675.8,286047002.0,N
1543036695.6,286047001.3,N
1543036715.5,286047001.8,N
1543036735.3,286047003.0,N
1543036755.2,286047005.9,Y
1543036775.9,286047003.3,P
1543036795.7,286047004.9,P
1543036815.6,286047005.7,P
1543036835.4,286047005.0,N
1543036855.2,286047004.6,N
1543036875.1,286047006.4,Y
1543036876.0,286047006.4,P
1543036895.8,286047004.4,P
1543036915.7,286047001.6,N
1543036935.5,286047001.3,N
1543036955.3,286047003.6,N
1543036975.2,286047005.8,Y
1543036995.0,286047001.8,P
1543036995.9,286047001.8,N
1543037015.8,286047004.3,P
1543037035.6,286047005.3,Y
1543037055.4,286047002.4,P
1543037075.3,286047002.5,P
1543037095.1,286047004.3,P
1543037115.9,286047003.2,Y
1543037135.7,286047000.9,P
1543037155.5,286047000.2,N
1543037175.4,286047000.2,N
1543037195.2,286046999.7,N
1543037215.0,286047002.1,N
1543037215.9,286047002.1,N
1543037235.8,286047001.6,N
1543037255.6,286047004.4,Y
1543037275.5,286047001.8,P
1543037295.3,286047002.1,P
1543037315.1,286047001.4,P
1543037335.9,286047001.7,Y
1543037355.7,286047002.3,P
1543037375.6,286047002.1,P
1543037395.4,286047001.9,P
1543037415.2,286047002.5,Y
1543037435.1,286046999.3,P
1543037436.0,286046999.3,N
1543037455.8,286046999.4,N
1543037475.7,286046998.3,N
1543037495.5,286047000.6,N
1543037515.3,286047002.5,N
1543037535.2,286047001.8,N
1543037555.0,286047004.0,N
1543037555.9,286047004.0,N
1543037575.7,286047001.6,N
1543037595.6,286047003.9,N
1543037615.4,286047004.2,N
1543037635.3,286047005.7,N
1543037655.1,286047003.3,N
1543037675.8,286047005.9,N
1543037695.7,286047005.9,N
1543037715.5,286047004.9,N
1543037735.4,286047007.3,Y
1543037755.2,286047002.9,P
1543037775.0,286047003.6,P
1543037775.9,286047003.6,P
1543037795.8,286047005.3,Y
1543037815.6,286047000.1,P
1543037835.4,286047002.5,N
1543037855.3,286047000.6,N
1543037875.1,286046998.1,N
1543037895.9,286047000.8,N
1543037915.7,286046998.5,N
1543037935.5,286047000.0,N
1543037955.4,286046998.7,N
1543037975.2,286047001.2,N
1543037995.0,286047001.0,N
1543037996.0,286047001.0,N
1543038015.8,286047000.9,N
1543038035.6,286047002.5,N
1543038055.5,286047001.8,N
1543038075.3,286047003.9,N
1543038095.1,286047004.1,N
1543038115.9,286047003.0,N
1543038135.7,286047003.6,N
1543038155.6,286047005.9,Y
1543038175.4,286047003.9,P
1543038195.2,286047001.3,N
1543038215.1,286047004.3,P
1543038216.0,286047004.3,Y
1543038235.8,286047002.7,P
1543038255.6,286047000.2,P
1543038275.5,286047002.6,N
1543038295.3,286047002.8,N
1543038315.2,286047001.8,N
1543038335.9,286047002.4,N
1543038355.7,286047002.5,N
1543038375.6,286047003.7,Y
1543038395.4,286047000.6,P
1543038415.3,286046998.2,N
1543038435.1,286046998.1,N
1543038436.0,286046998.1,N
1543038455.8,286046998.8,N
1543038475.7,286046996.9,N
1543038495.5,286046996.8,N
1543038515.3,286046997.9,N
1543038535.2,286046996.7,N
1543038555.0,286046996.5,N
1543038555.9,286046996.5,N
1543038575.8,286046995.3,N
1543038595.6,286046995.2,N
1543038615.4,286046997.0,N
1543038635.3,286046996.7,N
1543038655.1,286046997.7,N
1543038675.8,286046997.6,N
1543038695.7,286046995.2,N
1543038715.5,286046997.6,N
1543038735.4,286046999.2,N
1543038755.2,286046999.3,N
1543038775.0,286047000.9,N
1543038775.9,286047000.9,N
1543038795.8,286046998.4,N
1543038815.6,286046998.4,N
1543038835.5,286046999.3,N
1543038855.3,286046999.5,N
1543038875.1,286046997.3,N
1543038895.9,286046996.8,N
1543038915.7,286046998.6,N
1543038935.5,286046996.5,N
1543038955.4,286046996.5,N
1543038975.2,286046997.1,N
1543038995.1,286046999.6,N
1543038996.0,286046999.6,N
1543039015.8,286046997.1,N
1543039035.6,286046997.3,N
1543039055.5,286046996.8,N
1543039075.3,286046996.9,N
1543039095.1,286046996.7,N
1543039115.9,286046996.5,N
1543039135.7,286046999.4,N
1543039155.6,286046997.7,N
1543039175.4,286046995.2,Y
1543039195.2,286046999.1,P
